Regional Weather Roundup
Issued by NWS

Home | Current Version | Previous Version | Text Only | Print | Product List | Glossary On
Versions: 1 2 3 4 5 6 7 8 9 10 11 12 13 14 15 16 17 18 19 20 21 22 23 24 25 26 27 28 29 30 31 32 33 34 35 36 37 38 39 40 41 42 43 44 45 46 47 48 49 50
000
ASUS43 KBIS 261002
RWRND

NORTH DAKOTA REGIONAL WEATHER ROUNDUP
NATIONAL WEATHER SERVICE BISMARCK ND
500 AM CDT MON JUN 26 2017

NOTE: "FAIR" INDICATES FEW OR NO CLOUDS BELOW 12,000 FEET WITH NO
SIGNIFICANT WEATHER AND/OR OBSTRUCTIONS TO VISIBILITY.


NDZ001>003-009>011-017-261100-
NORTHWEST NORTH DAKOTA

CITY           SKY/WX    TMP DP  RH WIND       PRES   REMARKS
WILLISTON      CLEAR     48  42  80 CALM      30.24S
MINOT          CLEAR     45  39  79 SW7       30.24S
MINOT AFB      CLEAR     38  35  91 W3        30.23S
$$

NDZ018>021-031>035-040>046-261100-
SOUTHWEST NORTH DAKOTA

CITY           SKY/WX    TMP DP  RH WIND       PRES   REMARKS
BISMARCK       CLEAR     43  40  89 CALM      30.26R
DICKINSON      CLEAR     44  40  85 SE10      30.23S
GARRISON         N/A     40  38  93 N6        30.24S
HETTINGER ARPT PTCLDY    45  39  79 SE3       30.27R
$$

NDZ004>008-012>016-024-026-027-054-261100-
NORTHEAST NORTH DAKOTA

CITY           SKY/WX    TMP DP  RH WIND       PRES   REMARKS
GRAND FORKS    CLEAR     43  41  93 W5        30.20R
GRND FRKS AFB  PTCLDY    41  39  94 W6        30.20S
DEVILS LAKE    CLEAR     43  42  97 CALM      30.24R
$$

NDZ022-023-025-028>030-036>039-047>053-261100-
SOUTHEAST NORTH DAKOTA

CITY           SKY/WX    TMP DP  RH WIND       PRES   REMARKS
FARGO          CLEAR     43  39  86 CALM      30.21S
JAMESTOWN      CLEAR     42  40  92 CALM      30.23S
$$





USA.gov is the U.S. government's official web portal to all federal, state and local government web resources and services.